Regional Weather Roundup
Issued by NWS Sioux Falls, SD

Home | Current Version | Previous Version | Text Only | Print | Product List | Glossary Off
Versions: 1 2 3 4 5 6 7 8 9 10 11 12 13 14 15 16 17 18 19 20 21 22 23 24 25 26 27 28 29 30 31 32 33 34 35 36 37 38 39 40 41 42 43 44 45 46 47 48 49 50

000
ASUS43 KFSD 280710
RWRFSD

WEATHER ROUNDUP FOR SE SOUTH DAKOTA/SW MINNESOTA/NW IOWA
NATIONAL WEATHER SERVICE SIOUX FALLS SD
100 AM CST TUE FEB 28 2017

NOTE: "FAIR" INDICATES FEW OR NO CLOUDS BELOW 12,000 FEET WITH NO
SIGNIFICANT WEATHER AND OR OBSTRUCTIONS TO VISIBILITY.


SDZ038>040-050-052>070-280800-
SOUTHEAST SOUTH DAKOTA

CITY           SKY/WX    TMP DP  RH WIND       PRES   REMARKS
BROOKINGS      CLOUDY    33  29  85 NE3       29.72R
CHAMBERLAIN    CLOUDY    35  28  76 N8        29.69F WCI  29
HURON          CLOUDY    31  29  92 NE3       29.73R
MADISON        CLOUDY    32  32 100 NE6       29.69F WCI  26
MITCHELL       MOCLDY    33  30  88 NW5       29.72R WCI  29
SIOUX FALLS    PTCLDY    33  30  88 NE7       29.69F WCI  27
WINNER         CLOUDY    34  29  82 NE5       29.68F WCI  30
YANKTON        CLOUDY    34  27  75 NE8       29.66S WCI  27
$$

MNZ071-072-080-081-089-090-097-098-280800-
SOUTHWEST MINNESOTA

CITY           SKY/WX    TMP DP  RH WIND       PRES   REMARKS
FAIRMONT       PTCLDY    36  31  82 SE9       29.73F
JACKSON        MOCLDY    36  32  87 SE8       29.72S
LUVERNE        MOCLDY    34  30  86 NE3       29.70F
MARSHALL       CLOUDY    30  29  96 CALM      29.75R
MONTEVIDEO     CLOUDY    32  30  93 CALM      29.78R
PIPESTONE      CLOUDY    36  28  75 SE3       29.70S
REDWOOD FALLS  CLOUDY    35  29  78 SE7       29.74F WCI  29
TRACY          CLOUDY    32  31  95 S5        29.72S WCI  28
WINDOM         CLEAR     36  30  80 SE6       29.72R
WORTHINGTON    CLOUDY    37  30  75 S7        29.71S
$$

IAZ001>003-012>014-020>022-031-032-NEZ013-014-SDZ071-280800-
NORTHWEST IOWA

CITY           SKY/WX    TMP DP  RH WIND       PRES   REMARKS
CHEROKEE       CLOUDY    38  32  79 SE3       29.69F
DENISON        CLOUDY    41  32  70 E7        29.67F
ESTHERVILLE    CLEAR     34  32  92 SE10      29.71F WCI  26
LE MARS        CLOUDY    37  30  75 CALM      29.68F
SHELDON        CLOUDY    34  34 100 SE7       29.67F WCI  28
SIOUX CITY     CLOUDY    38  30  73 E7        29.65F
SPENCER        CLEAR     37  31  78 SE9       29.71S
STORM LAKE     CLOUDY    36  32  87 SE12      29.70F
$$

ABBREVIATIONS USED IN REMARKS
   TC - TEMPERATURE IN CELSIUS
  WCI - WIND CHILL INDEX
   HX - HEAT INDEX
  VSB - VISIBILITY




USA.gov is the U.S. government's official web portal to all federal, state and local government web resources and services.